Location: La Comballaz
(46.3780°N, 7.0817°E)
Time: 10:00:34
(UTC+00:00)

HuskySat-1 - Visible Passes

Search period start: 27 November 2022 00:00
Search period end: 07 December 2022 00:00
Orbit: 366 x 381 km, 51.6° (Epoch: 26 November)

Date Brightness Start Highest point End Pass type
(mag) Time Alt. Az. Time Alt. Az. Time Alt. Az.
29 Nov ? 17:58:12 10° S 17:58:23 11° S 17:58:23 11° S visible
30 Nov ? 18:30:09 10° SW 18:30:22 12° SW 18:30:22 12° SW visible
01 Dec ? 17:27:37 10° SSW 17:30:06 27° SSE 17:30:06 27° SSE visible
02 Dec ? 16:25:52 10° SSE 16:27:21 13° SE 16:28:50 10° ESE visible
02 Dec ? 17:59:36 10° WSW 18:01:34 37° WSW 18:01:34 37° WSW visible
03 Dec ? 16:56:30 10° SW 16:59:22 38° SE 17:00:50 22° E visible
03 Dec ? 18:32:08 10° W 18:32:47 15° W 18:32:47 15° W visible
04 Dec ? 17:28:24 10° WSW 17:31:26 74° NNW 17:31:50 61° NNE visible
05 Dec ? 16:24:48 10° SW 16:27:46 53° SSE 16:30:41 10° ENE visible
05 Dec ? 18:00:41 10° W 18:02:36 28° NW 18:02:36 28° NW visible
06 Dec ? 16:56:33 10° WSW 16:59:33 57° NNW 17:01:14 23° NE visible
06 Dec ? 18:32:53 10° WNW 18:33:09 12° WNW 18:33:09 12° WNW visible
